Location: Newark
(43.6583°N, 1.6617°E)
Time: 08:03:23
(UTC+00:00)

Transit 4A - Pass Details

Date: 03 September 2019
Orbit: 866 x 978 km, 66.8° (Epoch: 16 October)

Event Time Altitude Azimuth Distance (km) Brightness Sun altitude
Rises 23:24:54 0° 331° (NNW) 3,627 11.8 -38.6°
Reaches altitude 10° 23:27:34 10° 336° (NNW) 2,662 10.9 -38.7°
Enters shadow 23:31:10 34° 355° (N) 1,494 9.3 -38.7°
